Regional Weather Roundup
Issued by NWS

Home | Current Version | Previous Version | Text Only | Print | Product List | Glossary Off
Versions: 1 2 3 4 5 6 7 8 9 10 11 12 13 14 15 16 17 18 19 20 21 22 23 24 25 26 27

000
ASUS45 KBOU 202207
RWRCO

WEATHER ROUNDUP FOR COLORADO
NATIONAL WEATHER SERVICE DENVER/BOULDER CO
300 PM MST MON FEB 20 2017

NOTE: "FAIR" INDICATES FEW OR NO CLOUDS BELOW 12000 FEET WITH NO
SIGNIFICANT WEATHER AND/OR OBSTRUCTIONS TO VISIBILITY.

COZ001>005-013-030-031-202300-
...NORTHWEST COLORADO...

CITY           SKY/WX    TMP DP  RH WIND       PRES   REMARKS
CRAIG          CLOUDY    47  30  51 SW14      30.14F
HAYDEN         PTSUNNY   41  27  56 NE7       30.15S
MEEKER         PTSUNNY   47  31  53 SW15      30.15F
MOUNT WERNER   NOT AVBL
STEAMBOAT SPGS CLOUDY    41  26  54 CALM      30.16S
WALDEN         NOT AVBL
$$

COZ006>008-011-202300-
...WEST CENTRAL VALLEYS...

CITY           SKY/WX    TMP DP  RH WIND       PRES   REMARKS
GRAND JUNCTION FAIR      52  38  58 NW7       30.15F
MONTROSE       FAIR      53  28  38 N5        30.18F
EAGLE          MOSUNNY   48  25  40 W17G23    30.19S
RIFLE          FAIR      51  34  52 NW8       30.15F
DELTA          FAIR      56  30  38 CALM      30.17F
NUCLA          FAIR      52  32  46 W7        30.24R
$$

COZ017>023-064>068-202300-
...SOUTHWEST COLORADO...

CITY           SKY/WX    TMP DP  RH WIND       PRES   REMARKS
DURANGO        FAIR      50  32  50 SW12G18   30.21F
CORTEZ         FAIR      49  33  54 CALM      30.24S
PAGOSA SPRINGS FAIR      43  25  48 CALM      30.26S
TELLURIDE      FAIR      44  14  30 E5        30.26F
WOLF CREEK PAS FAIR      27  23  86 S10       30.35R WCI  17
$$

COZ009-010-012-014-032>034-037-058>063-202300-
...CENTRAL COLORADO...

CITY           SKY/WX    TMP DP  RH WIND       PRES   REMARKS
ASPEN          FAIR      44  19  36 CALM      30.18S
BUENA VISTA    FAIR      49  15  25 W26G38    30.13S
COPPER MTN     NOT AVBL
BERTHOUD PASS  FAIR      21  10  63 NW26G43   30.21R WCI   4
COTTONWOOD PAS FAIR      41   9  26 SW33G52   30.17R
GUNNISON       FAIR      36  24  62 E9        30.26R
KREMMLING      FAIR      50  23  34 SW6G17    30.18S
LEADVILLE      FAIR      37  12  35 N13G18    30.20R
MONARCH PASS   FAIR      23  18  80 W38       30.36R WCI   4
SALIDA         FAIR      54  14  21 W28G36    30.20S
SUNLIGHT       NOT AVBL
WILKERSON PASS FAIR      34   9  35 W12G28    30.21S WCI  25
$$

COZ069>075-202300-
...SAN LUIS VALLEY/SANGRE DE CRISTO MOUNTAINS...

CITY           SKY/WX    TMP DP  RH WIND       PRES   REMARKS
ALAMOSA        FAIR      48  18  30 S3        30.18S
LA VETA PASS   FAIR      39  18  41 NE22      30.20S
SAGUACHE       FAIR      50  14  23 N18G25    30.19R
$$

COZ035-036-038>040-202300-
...NORTHERN COLORADO FRONT RANGE...

CITY           SKY/WX    TMP DP  RH WIND       PRES   REMARKS
DENVER INTL AP FAIR      62  10  13 W15       29.99S
DMNS CITY PARK   N/A     62  10  13 NW3G20    29.98S
AURORA         MOSUNNY   60  11  14 W5        30.00F
FRONT RANGE AP MOSUNNY   63  12  14 W14G23    30.00
ERIE MUNI ARPT FAIR      62  10  13 W13G21    29.98S
BOULDER MUN AP FAIR      61  16  17 W17G24    29.97F
CENTENNIAL     FAIR      60   9  13 NE7       30.00F
BROOMFIELD     MOSUNNY   61  14  16 W23G35    30.00F
FORT COLLINS   FAIR      63  15  15 VRB5      29.95S
LONGMONT       FAIR      64  15  15 W17G28    29.99S
$$

COZ041-046-047-076>085-087-088-202300-
...PIKES PEAK/PALMER DIVIDE AND SOUTHERN FOOTHILLS...

CITY           SKY/WX    TMP DP  RH WIND       PRES   REMARKS
COLO. SPRINGS  FAIR      59   3  10 W6        30.04S
A. F. ACADEMY  FAIR      60   5  11 NW14G24   30.03R
SCHRIEVER AFB  FAIR      57   5  12 S16G24    30.05R
ELLICOTT       FAIR     N/A N/A N/A SW7       30.03S
FALCON         FAIR      57   3  11 S15G21    30.06S
FORT CARSON    FAIR      60   3  10 SE9       30.03R
LIMON          FAIR      59  13  16 N16       30.03R
MONUMENT HILL  FAIR      54   9  16 W3        30.06S
TRINIDAD       FAIR      63   7  11 NW16G22   30.05S
$$

COZ042>045-048>051-090-091-202300-
...NORTHEAST COLORADO...

CITY           SKY/WX    TMP DP  RH WIND       PRES   REMARKS
GREELEY ARPT   FAIR      63  15  15 S10       29.97S
AKRON          FAIR      61  13  15 NW14      29.99S
BURLINGTON     FAIR      62  11  13 N20G31    29.99R
WRAY           NOT AVBL
STERLING       NOT AVBL
HOLYOKE        FAIR      63   9  12 NW16G25   29.96R
FORT MORGAN    FAIR      63  12  13 SW9       29.98R
$$

COZ086-089-092>099-202300-
...SOUTHEAST COLORADO...

CITY           SKY/WX    TMP DP  RH WIND       PRES   REMARKS
PUEBLO         FAIR      67   7   9 SE8G24    29.97F
LA JUNTA       FAIR      67   8  10 N15       30.02R
LAMAR          FAIR      67   9  10 N16G26    29.98R
SPRINGFIELD      N/A     63   8  11 NW22G30   30.01R
$$




USA.gov is the U.S. government's official web portal to all federal, state and local government web resources and services.